RH
90 83 76 87 93 96 95 91 95 97 97 93 92 96 90 86 78 68 62 59 64 74 71 62 58 59 55 50 51 54 52 52 51 50 46 42 40 39 38 35 34 35 36
84 83 79 88 90 92 90 88 78 72 90 96 89 80 84 81 74 69 66 62 59 68 72 59 52 51 55 56 54 52 53 54 51 49 51 56 55 48 47 46 40 38 39
79 75 78 83 88 96 89 89 84 81 91 86 84 85 84 83 79 75 78 79 64 63 61 57 57 58 57 55 55 52 54 51 47 49 51 59 56 58 56 53 52 50 44
83 78 78 85 91 94 88 88 100 89 95 88 86 81 75 75 64 57 69 74 69 61 58 60 59 59 61 60 55 57 54 50 46 52 51 53 63 67 59 55 57 57 48
84 80 80 87 90 93 93 92 98 100 86 92 91 88 81 73 69 75 72 70 74 69 70 65 63 61 59 59 60 58 54 51 52 51 56 56 59 60 64 58 51 50 50
86 80 82 89 91 90 92 94 97 98 91 97 94 90 85 81 81 81 81 77 72 71 74 75 72 68 72 70 64 58 59 61 62 61 58 58 62 59 61 64 61 62 53
90 85 85 88 90 89 90 90 94 96 94 88 94 92 85 76 75 77 77 78 73 72 74 74 72 72 73 77 79 73 71 71 72 72 69 68 65 66 70 75 70 73 66
95 89 83 84 87 90 89 86 88 88 85 85 92 93 85 78 76 75 75 83 72 64 67 65 70 68 71 72 78 79 74 69 70 73 74 78 82 84 83 80 83 84 78
94 91 89 86 86 87 89 86 83 81 83 79 86 92 91 85 86 87 89 83 77 69 69 65 64 65 66 68 69 70 70 70 69 66 70 73 76 80 82 83 88 93 96
89 84 86 92 90 89 88 90 85 82 80 80 86 92 95 87 80 80 88 84 82 79 75 74 74 75 75 72 65 65 72 69 66 66 66 67 69 69 72 72 79 83 85
87 87 89 95 95 94 92 93 93 86 85 85 90 94 97 96 85 80 75 68 70 75 81 78 76 75 72 71 66 69 63 69 71 75 79 79 76 65 67 76 81 82 84
86 91 96 100 100 95 92 94 96 94 90 91 91 90 89 98 100 96 90 91 85 83 85 89 84 80 74 75 78 76 73 74 79 76 77 79 82 82 70 69 74 80 80
89 94 100 98 99 96 93 94 95 97 99 96 95 99 93 92 98 98 100 98 98 92 87 86 89 89 91 86 80 81 86 84 84 83 80 80 82 84 77 73 73 71 76
89 96 100 98 98 94 94 93 100 100 98 99 99 100 100 100 100 99 98 99 100 100 99 99 97 94 92 90 99 94 95 94 96 88 96 94 94 90 80 86 84 74 76
83 86 93 99 99 97 96 94 95 98 100 100 100 100 100 100 100 100 100 100 100 100 100 100 99 100 100 100 99 100 100 99 99 96 96 90 98 100 95 94 88 85 96
71 71 76 82 91 98 96 95 95 94 94 96 98 100 100 100 100 100 100 100 100 100 100 100 100 99 100 100 99 99 98 100 99 100 99 100 99 99 99 100 98 99 100
50 57 64 70 79 90 95 96 96 94 92 90 91 92 95 99 100 100 99 99 100 99 100 100 100 100 100 100 100 100 100 100 99 100 100 99 99 100 100 100 100 100 100
40 50 58 66 72 83 92 94 97 94 92 90 89 92 93 92 97 98 99 99 99 99 99 99 99 100 99 100 100 100 100 100 100 99 100 100 100 100 100 100 99 98 100
46 52 60 64 64 70 79 86 88 89 89 88 86 85 83 81 80 77 75 74 73 73 74 75 76 76 76 83 90 92 94 95 96 97 99 100 98 100 99 95 100 94 88
49 55 60 62 66 74 75 72 72 71 70 68 66 64 61 59 58 56 54 52 49 47 44 42 40 39 39 40 38 37 37 39 44 52 61 68 78 83 84 78 78 73 69
53 56 56 56 62 65 60 57 57 56 53 49 45 42 40 37 35 33 30 28 26 25 24 23 24 25 27 28 28 24 22 24 22 22 22 24 27 30 30 36 38 46 55
55 54 54 57 58 54 51 48 46 44 41 37 34 30 28 26 23 21 19 18 17 16 16 18 20 21 22 23 23 22 22 22 21 19 21 22 20 19 18 18 19 18 19
53 55 56 56 53 49 45 43 41 37 31 27 25 23 21 20 19 18 18 17 18 19 20 21 21 21 21 22 22 23 25 24 23 25 24 23 24 24 25 29 28 37 65
57 57 56 53 50 46 40 38 34 29 25 23 23 23 24 26 28 29 26 23 21 22 22 21 20 19 20 21 21 20 19 19 18 19 18 22 26 27 30 38 45 52 65
58 58 55 53 49 42 35 30 28 31 36 33 28 24 22 22 22 21 21 20 20 19 18 18 19 20 20 21 22 24 23 22 24 24 23 24 23 22 24 27 32 43 56
59 59 56 50 42 35 35 42 39 29 25 24 24 24 24 23 23 23 22 20 19 19 20 20 21 24 24 22 23 23 25 25 27 29 30 27 29 31 35 37 37 38 58
Wind_Speed
30 29 26 27 28 30 31 29 29 26 26 26 25 24 23 19 16 15 14 15 14 14 11 9 11 12 11 10 10 11 11 11 10 9 8 8 9 10 11 11 11 12 12
30 29 26 26 29 27 30 29 27 27 24 25 23 21 24 20 16 14 13 14 15 16 14 11 11 12 12 13 13 13 13 13 12 9 8 5 9 11 10 12 12 13 14
37 31 29 28 32 29 29 28 30 28 26 25 21 21 21 19 19 17 16 15 14 13 15 13 12 13 13 13 12 12 13 13 12 12 9 5 6 5 8 8 8 8 9
34 34 31 30 33 32 29 28 32 31 29 26 24 24 25 25 21 20 18 17 14 12 14 14 13 13 14 14 13 13 13 14 13 14 16 14 9 5 5 7 8 9 12
37 37 35 31 34 33 30 28 29 29 26 27 24 23 22 18 17 17 16 16 15 13 13 14 13 12 13 13 13 14 15 15 14 15 13 15 18 18 18 20 16 17 16
37 34 33 33 33 34 31 30 30 28 25 27 26 26 24 21 19 17 16 16 16 14 15 14 13 12 12 12 10 11 12 12 13 14 15 16 16 15 15 18 20 21 19
39 38 38 37 35 39 36 33 32 29 25 27 27 27 25 23 21 20 18 18 18 15 17 16 14 14 13 12 11 10 8 9 10 11 14 15 17 16 17 20 21 24 25
39 38 38 38 37 39 40 35 34 31 29 28 29 27 24 23 22 22 21 19 18 14 11 11 9 7 9 12 15 16 15 14 15 15 16 16 15 16 17 20 20 25 28
38 38 36 37 38 38 41 39 36 34 34 33 32 30 27 25 25 26 24 23 21 18 18 18 18 17 17 17 18 20 19 19 19 20 20 21 21 21 22 21 21 23 30
38 38 37 37 36 37 37 40 38 36 35 33 33 32 30 29 27 25 28 27 26 25 25 23 22 23 22 22 22 24 22 25 25 25 24 24 25 26 26 26 26 26 29
40 41 40 40 38 36 36 35 39 38 37 37 35 33 33 33 33 31 29 27 25 26 26 26 28 27 25 26 28 29 28 30 31 31 31 31 30 30 30 30 31 32 33
42 37 39 37 36 35 34 35 35 37 38 37 36 36 33 32 30 36 31 30 31 29 28 28 26 29 31 31 34 34 34 36 35 34 36 35 34 36 34 34 34 35 36
36 36 36 36 34 33 33 33 32 33 35 34 34 35 34 35 34 32 36 39 39 39 38 36 35 34 30 32 35 35 36 37 39 36 38 37 37 37 35 37 40 38 38
33 31 30 31 30 29 29 29 30 30 31 33 33 27 27 28 32 33 35 33 33 35 36 35 34 35 35 34 37 37 35 36 37 37 38 38 38 40 38 38 38 35 37
27 29 29 29 29 29 29 29 29 28 28 28 28 28 28 27 27 28 31 34 32 32 34 33 32 31 32 33 36 36 34 35 36 37 38 38 38 38 37 39 38 39 41
26 26 27 27 27 27 28 27 28 26 27 27 26 27 28 28 28 29 29 30 31 28 30 37 39 40 35 38 42 42 40 37 39 37 39 36 40 40 43 41 43 43 45
29 28 29 29 29 28 27 27 25 24 24 25 25 24 24 24 23 24 24 25 25 27 27 28 27 28 30 34 37 39 39 41 42 42 41 42 41 36 38 39 36 37 42
31 30 30 28 26 25 24 24 24 23 22 22 21 20 20 20 20 19 19 19 19 20 21 22 23 23 26 28 30 33 33 34 34 35 34 36 36 37 34 34 39 36 38
27 28 26 23 22 20 20 20 20 19 18 18 18 17 17 18 17 17 15 15 15 15 15 16 17 17 19 22 23 25 25 26 27 28 29 30 31 29 33 37 33 35 38
24 25 22 20 18 18 18 18 17 15 15 14 13 13 13 13 12 12 12 12 13 14 13 13 13 14 15 16 17 18 18 19 20 21 23 25 26 28 26 30 31 34 32
22 21 20 18 17 16 15 14 14 13 13 12 11 10 9 9 9 8 8 8 8 9 9 9 10 11 12 13 15 16 16 18 19 20 20 21 22 25 26 27 29 29 31
21 20 19 18 17 15 15 15 13 12 11 9 9 8 8 8 7 7 7 7 6 6 6 6 7 8 10 12 13 15 16 18 20 21 22 23 24 25 25 25 25 26 28
17 18 18 18 17 16 16 14 14 12 11 11 10 9 8 7 7 6 5 5 5 4 5 6 7 8 9 10 12 13 14 15 17 18 20 22 23 25 25 24 23 21 22
17 18 18 18 17 16 15 14 13 12 12 11 10 8 8 7 6 5 4 4 3 3 3 5 6 7 8 9 11 12 14 15 17 19 20 22 22 22 22 21 20 20 20
17 17 16 16 16 15 15 14 13 12 11 10 9 7 6 6 4 3 2 1 2 2 4 6 7 9 9 11 12 14 15 16 17 19 20 20 21 22 22 23 23 22 20
18 18 17 16 15 14 14 13 12 11 10 9 9 8 6 5 4 3 1 1 1 3 4 6 7 9 10 12 13 14 15 16 18 19 20 21 22 23 23 24 25 24 20
Wind_Direction
179 185 188 192 190 191 188 181 166 163 174 182 183 183 184 185 184 183 187 189 189 193 207 199 199 194 198 202 204 205 208 205 211 224 232 238 245 246 249 253 254 259 270
187 185 187 185 199 193 188 185 174 182 186 190 192 189 188 186 189 188 188 193 189 200 210 213 205 199 197 201 209 213 215 219 221 228 230 249 249 248 249 255 260 265 266
185 187 191 193 192 190 185 194 189 185 189 192 184 180 185 187 188 194 199 200 200 201 211 214 210 210 211 213 218 223 226 230 229 225 227 223 249 256 252 254 256 265 274
189 190 192 189 190 188 190 193 183 182 187 186 186 188 190 194 197 200 202 206 210 205 210 215 213 213 218 223 228 232 232 232 228 231 234 239 249 264 279 262 263 272 284
193 191 197 193 193 193 193 194 191 187 188 187 195 197 201 203 197 198 205 207 210 208 212 216 221 223 225 225 230 231 231 237 237 238 243 248 249 252 261 280 283 281 284
197 195 196 198 195 193 197 197 192 196 193 192 200 205 209 208 204 205 207 206 207 214 215 215 220 221 221 227 234 235 234 238 246 250 249 249 253 261 265 271 281 285 285
199 196 195 197 197 196 197 200 197 200 201 202 209 213 213 214 214 214 212 210 208 223 223 221 227 234 236 236 236 234 242 257 265 269 267 266 267 268 270 273 278 283 289
199 200 197 198 203 200 200 201 201 206 203 211 215 218 217 216 220 223 224 221 221 220 207 218 227 239 239 248 245 247 246 263 267 274 280 282 280 281 280 278 280 284 285
200 203 203 203 203 202 206 203 202 204 208 218 221 222 224 220 221 225 230 236 230 231 232 238 244 243 249 258 256 260 263 262 264 269 271 271 275 278 281 280 282 282 283
201 203 206 208 207 206 208 209 208 209 215 222 224 227 231 230 229 230 232 237 237 238 241 242 246 247 247 247 253 261 260 261 267 266 269 271 274 276 275 276 277 277 277
200 201 203 206 209 210 208 209 214 213 215 220 224 227 234 236 234 238 239 237 239 240 243 246 248 248 251 254 256 254 257 259 262 267 269 269 269 273 272 272 269 268 268
198 197 200 202 205 207 210 211 214 213 217 220 226 230 232 235 237 237 240 240 243 246 248 255 255 254 255 257 259 259 260 263 263 265 268 270 270 269 270 271 274 273 273
188 189 190 197 202 206 211 212 216 220 219 221 224 228 233 236 236 236 236 241 244 247 250 251 252 257 257 260 259 260 261 263 263 265 266 266 268 268 268 267 268 273 276
184 186 190 196 202 207 210 216 216 219 220 225 228 220 222 231 231 235 236 238 241 246 247 250 252 255 257 258 259 261 262 261 266 269 269 266 265 267 267 268 268 267 271
194 198 200 201 204 210 215 219 221 223 223 226 226 226 221 222 222 222 234 234 229 235 240 245 250 247 250 253 258 269 264 265 266 275 272 274 271 273 270 271 269 268 270
208 214 217 217 217 215 218 222 226 228 231 233 234 235 238 239 239 240 241 243 246 249 247 249 250 251 252 255 263 265 266 265 267 258 263 266 272 270 269 266 270 271 272
212 214 214 214 215 217 217 221 226 228 231 235 237 239 242 243 244 246 247 250 253 255 254 255 255 254 253 255 257 259 261 265 263 263 261 259 258 261 259 258 261 267 267
210 210 212 211 211 212 212 213 216 220 225 229 232 236 239 241 245 247 249 252 255 257 259 260 262 263 263 263 263 262 264 265 266 267 268 268 269 262 264 269 260 267 263
211 209 211 211 213 214 215 216 215 216 218 221 224 229 233 238 243 247 250 252 254 260 262 265 267 269 270 273 276 276 278 275 273 271 272 274 273 277 272 270 277 271 273
208 204 205 207 208 203 200 202 207 209 212 216 219 222 226 231 235 240 245 250 252 256 257 259 263 269 273 277 280 283 284 283 281 281 283 284 285 281 280 281 286 286 283
197 199 205 210 206 203 203 202 206 209 210 211 214 219 227 235 238 240 243 246 251 256 260 263 267 270 271 275 281 284 288 292 292 293 292 290 290 290 291 291 290 288 287
190 199 205 202 201 204 207 210 212 215 219 222 224 223 225 231 235 241 247 250 252 254 257 260 266 272 278 282 287 291 294 298 301 302 303 301 300 301 300 300 298 293 290
200 202 202 196 195 197 200 205 205 205 208 208 208 211 214 217 220 226 233 242 248 258 273 281 288 294 297 298 299 303 305 306 307 309 309 312 314 314 315 314 312 307 304
203 203 198 198 198 198 202 202 205 205 207 206 206 207 213 219 228 239 244 252 267 288 303 313 317 318 317 317 318 320 319 318 317 317 319 322 321 320 320 318 315 315 315
204 204 203 202 200 201 204 204 205 207 209 209 209 206 205 202 203 205 217 256 310 321 325 328 327 326 327 329 330 327 325 325 323 321 320 322 323 324 325 324 322 320 316
200 202 203 205 203 201 203 206 207 206 206 202 197 193 192 192 186 186 217 299 349 336 328 325 323 322 324 323 321 320 321 320 322 322 324 323 322 323 324 326 324 324 319